#timestamp,LO_Frequency,Hit,StdDev 
1522814415.1,286046998.1,N
1522814435.9,286047000.8,N
1522814455.7,286047000.5,N
1522814475.5,286047000.6,N
1522814495.4,286047001.2,N
1522814515.2,286047000.9,N
1522814535.1,286046998.2,N
1522814536.0,286046998.2,N
1522814555.8,286046998.2,N
1522814575.6,286046999.2,N
1522814595.5,286046996.7,N
1522814615.3,286046999.6,N
1522814635.1,286046998.8,N
1522814655.9,286046996.9,N
1522814675.7,286046999.0,N
1522814695.6,286046998.2,N
1522814715.4,286046999.3,N
1522814735.2,286046999.1,N
1522814755.1,286046998.2,N
1522814756.0,286046998.2,N
1522814775.8,286046999.0,N
1522814795.6,286047001.1,N
1522814815.5,286047000.6,N
1522814835.3,286047000.5,N
1522814855.1,286047002.1,N
1522814875.9,286047002.6,N
1522814895.7,286047002.2,N
1522814915.6,286047002.2,N
1522814935.4,286047004.3,N
1522814955.2,286047006.0,Y
1522814975.1,286047005.8,P
1522814976.0,286047005.8,N
1522814995.8,286047004.4,N
1522815015.7,286047002.7,N
1522815035.5,286047002.3,N
1522815055.3,286047002.9,N
1522815075.2,286047006.0,Y
1522815095.9,286047000.5,P
1522815115.7,286046999.0,N
1522815135.6,286046999.3,N
1522815155.4,286046999.0,N
1522815175.3,286047001.0,N
1522815195.1,286046999.9,N
1522815196.0,286046999.9,N
1522815215.8,286047002.7,N
1522815235.7,286047000.9,N
1522815255.5,286046999.9,N
1522815275.3,286047002.3,N
1522815295.2,286047000.5,N
1522815315.0,286046998.7,N
1522815315.9,286046998.7,N
1522815335.8,286047002.2,N
1522815355.6,286047001.8,N
1522815375.4,286047003.6,N
1522815395.3,286047002.6,N
1522815415.1,286047002.7,N
1522815416.0,286047002.7,N
1522815435.8,286047002.6,N
1522815455.7,286047001.8,N
1522815475.5,286047001.4,N
1522815495.3,286047002.1,N
1522815515.2,286047000.3,N
1522815535.0,286046998.9,N
1522815535.9,286046998.9,N
1522815555.8,286046999.0,N
1522815575.6,286046998.4,N
1522815595.4,286047002.8,N
1522815615.3,286047001.9,N
1522815635.1,286046999.7,N
1522815655.8,286047000.2,N
1522815675.7,286046998.2,N
1522815695.5,286047000.6,N
1522815715.4,286046998.6,N
1522815735.2,286046998.8,N
1522815755.0,286046998.6,N
1522815755.9,286046998.6,N
1522815775.8,286046998.5,N
1522815795.6,286046998.8,N
1522815815.4,286047000.7,N
1522815835.3,286047000.4,N
1522815855.1,286047000.2,N
1522815875.9,286047001.0,N
1522815895.7,286047003.4,N
1522815915.5,286047003.4,N
1522815935.4,286047002.0,N
1522815955.2,286047002.8,N
1522815975.0,286047000.4,N
1522815975.9,286047000.4,N
1522815995.8,286047001.1,N
1522816015.6,286046998.3,N
1522816035.5,286047000.7,N
1522816055.3,286047002.2,N
1522816075.1,286047000.1,N
1522816095.9,286047001.4,N
1522816115.7,286047006.0,Y
1522816135.5,286047002.2,P
1522816155.4,286047001.6,N
1522816175.2,286047002.6,P
1522816195.1,286047003.9,Y
1522816196.0,286047003.9,P
1522816215.8,286047000.6,N
1522816235.6,286047002.4,N
1522816255.5,286047001.3,N
1522816275.3,286046999.7,N
1522816295.1,286047001.3,N
1522816315.9,286047001.9,N
1522816335.7,286047004.3,Y
1522816355.6,286047002.8,P
1522816375.4,286047000.9,N
1522816395.2,286046998.4,N
1522816415.1,286047001.2,N
1522816416.0,286047001.2,N
1522816435.8,286047001.5,N
1522816455.7,286047004.3,Y
1522816475.5,286047005.2,P
1522816495.3,286047006.2,N
1522816515.2,286047004.5,N
1522816535.9,286047005.5,N
1522816555.7,286047004.5,N
1522816575.6,286047007.4,Y
1522816595.4,286046999.8,P
1522816615.2,286046999.7,N
1522816635.1,286046998.3,N
1522816636.0,286046998.3,N
1522816655.8,286046998.6,N
1522816675.7,286047001.1,N
1522816695.5,286047001.2,N
1522816715.3,286046997.0,N
1522816735.2,286046997.5,N
1522816755.0,286046996.6,N
1522816755.9,286046996.6,N
1522816775.8,286046999.1,N
1522816795.6,286046999.0,N
1522816815.4,286047001.1,N
1522816835.3,286047001.0,N
1522816855.1,286046999.1,N
1522816875.8,286046995.0,N
1522816895.7,286046997.8,N
1522816915.5,286046995.5,N
1522816935.4,286046993.8,N
1522816955.2,286046993.3,N
1522816975.0,286046996.7,N
1522816975.9,286046996.7,N
1522816995.8,286046997.8,N
1522817015.6,286046995.5,N
1522817035.5,286046996.6,N
1522817055.3,286047002.3,N
1522817075.1,286047000.8,N
1522817095.9,286046996.5,N
1522817115.7,286046994.9,N
1522817135.5,286046995.1,N
1522817155.4,286046996.7,N
1522817175.2,286046997.1,N
1522817195.0,286046997.0,N
1522817196.0,286046997.0,N
1522817215.8,286046998.4,N
1522817235.6,286047000.8,N
1522817255.5,286046998.6,N
1522817275.3,286046997.9,N
1522817295.1,286046995.1,N
1522817315.9,286046995.3,N
1522817335.7,286046995.8,N
1522817355.5,286046993.9,N
1522817375.4,286046993.7,N
1522817395.2,286046993.3,N
1522817415.1,286046992.1,Y
1522817416.0,286046992.1,P
1522817435.8,286046995.9,N
1522817455.6,286046995.7,N
1522817475.5,286046997.6,N
1522817495.3,286046995.1,N
1522817515.2,286046996.9,N
1522817535.9,286046996.9,N
1522817555.7,286046995.0,Y
1522817575.6,286047001.1,P
1522817595.4,286047001.1,N
1522817615.2,286046998.8,N
1522817635.1,286047000.7,N
1522817636.0,286047000.7,N
1522817655.8,286047000.0,N
1522817675.7,286046999.2,N
1522817695.5,286046996.9,N
1522817715.3,286046996.9,N
1522817735.2,286046999.5,N
1522817755.9,286047000.7,N
1522817775.7,286046999.4,N
1522817795.6,286046998.7,N
1522817815.4,286046998.9,N
1522817835.3,286046998.4,N
1522817855.1,286046999.4,N
1522817856.0,286046999.4,N
1522817875.8,286046999.1,N
1522817895.7,286046999.3,N
1522817915.5,286046996.6,N
1522817935.3,286046996.7,N
1522817955.2,286046997.5,N
1522817975.0,286046997.6,N
1522817975.9,286046997.6,N
1522817995.8,286046999.5,N
